FW6606 Weather Reports


time (UTC)temp
F
wind
direction
speed
knots
gust
knots
rain 1hr
in
rain 24hr
in
rain mn
in
humidity
%
barometer
mb
20260504000058 73 0 0.0 0.0 0.00 0.00 0.00 52 1018.3
20260503234554 76 89 0.0 0.9 0.00 0.00 0.00 42 1018.2
20260503233053 78 0 0.0 1.7 0.00 0.00 0.00 38 1018.4
20260503231555 79 0 0.0 0.9 0.00 0.00 0.00 37 1018.5
20260503230054 80 127 0.0 0.9 0.00 0.00 0.00 36 1018.5
20260503224554 80 159 0.0 5.2 0.00 0.00 0.00 35 1018.5
20260503223052 79 223 0.0 4.3 0.00 0.00 0.00 37 1018.3
20260503221555 81 0 0.9 2.6 0.00 0.00 0.00 34 1018.4
20260503220053 82 0 0.0 3.5 0.00 0.00 0.00 35 1018.3
20260503214601 82 54 0.0 3.5 0.00 0.00 0.00 35 1018.4
20260503213052 82 103 0.9 3.5 0.00 0.00 0.00 35 1018.5
20260503211556 82 0 0.0 3.5 0.00 0.00 0.00 32 1018.6
20260503210052 83 87 0.0 3.5 0.00 0.00 0.00 32 1018.9
20260503204557 83 0 0.0 3.5 0.00 0.00 0.00 31 1019.2
20260503203053 83 117 0.0 2.6 0.00 0.00 0.00 34 1019.3
20260503201556 82 306 1.7 6.1 0.00 0.00 0.00 33 1019.4
20260503200050 81 255 0.9 4.3 0.00 0.00 0.00 33 1019.6
20260503194600 81 336 1.7 5.2 0.00 0.00 0.00 33 1019.9
20260503193110 82 90 0.9 4.3 0.00 0.00 0.00 34 1020.1
20260503191554 82 265 0.9 6.1 0.00 0.00 0.00 34 1020.5
20260503190106 82 60 0.0 2.6 0.00 0.00 0.00 33 1020.7
20260503184601 82 183 0.0 3.5 0.00 0.00 0.00 37 1021.1
20260503183104 81 0 0.0 4.3 0.00 0.00 0.00 34 1021.2
20260503181554 81 98 0.9 5.2 0.00 0.00 0.00 33 1021.4
20260503180100 82 290 0.9 5.2 0.00 0.00 0.00 34 1021.4
20260503174554 81 233 0.0 7.0 0.00 0.00 0.00 36 1021.4
20260503173113 79 219 2.6 5.2 0.00 0.00 0.00 35 1021.5
20260503171553 81 290 0.0 4.3 0.00 0.00 0.00 33 1021.7
20260503150111 74 113 0.0 3.5 0.00 0.00 0.00 49 1022.7
20260503140120 64 0 0.0 0.0 0.00 0.00 0.00 76 1022.3
20260503110104 45 0 0.0 0.0 0.00 0.02 0.00 98 1020.8
20260503100107 45 0 0.0 0.0 0.00 0.04 0.00 97 1020.8
20260503081556 47 0 0.0 0.0 0.00 0.44 0.00 92 1020.0
20260503071606 48 0 0.0 0.0 0.00 0.62 0.00 93 1019.6
20260503054551 49 0 0.0 0.0 0.00 0.82 0.00 93 1019.7
20260503053054 49 0 0.0 0.0 0.00 0.82 0.00 93 1019.6
20260503051557 50 0 0.0 0.0 0.00 0.82 0.00 93 1019.4
20260503050057 50 0 0.0 0.0 0.00 0.82 0.00 94 1019.3
20260503044558 50 0 0.0 0.0 0.00 0.83 0.82 94 1019.1
20260503043055 51 0 0.0 0.0 0.00 0.83 0.82 92 1019.2
20260503041556 51 0 0.0 0.0 0.00 0.83 0.82 92 1019.2
20260503040059 51 0 0.0 0.0 0.00 0.83 0.82 93 1019.1
20260503034600 52 0 0.0 0.0 0.00 0.94 0.82 92 1019.0
20260503033101 52 0 0.0 0.0 0.00 0.94 0.82 91 1018.9
20260503031558 53 0 0.0 0.0 0.00 0.94 0.82 89 1018.8
20260503030055 53 0 0.0 0.0 0.00 0.94 0.82 86 1018.6
20260503024602 53 0 0.0 0.0 0.00 1.21 0.82 84 1018.5
20260503023057 54 0 0.0 0.0 0.00 1.21 0.82 81 1018.3
20260503021558 56 0 0.0 0.0 0.00 1.21 0.82 81 1018.1
20260503020058 57 0 0.0 0.0 0.00 1.21 0.82 74 1017.9
20260503014621 59 0 0.0 0.0 0.00 1.33 0.82 71 1017.9
20260503013054 60 0 0.0 0.0 0.00 1.33 0.82 69 1017.6
20260503011616 60 0 0.0 0.0 0.00 1.33 0.82 67 1017.3
20260503010058 61 0 0.0 0.0 0.00 1.33 0.82 64 1017.1
20260503004600 63 0 0.0 0.0 0.00 1.42 0.82 63 1016.7
20260503003106 65 0 0.0 0.0 0.00 1.42 0.82 60 1016.4
20260503001554 67 20 0.0 3.5 0.00 1.42 0.82 52 1016.0